Location: Geroldsau
(48.7259°N, 8.2466°E)
Time: 08:06:58
(UTC+00:00)

Alouette 2 Rocket - Pass Details

Date: 20 June 2021
Orbit: 501 x 2650 km, 79.8° (Epoch: 01 August)

Event Time Altitude Azimuth Distance (km) Brightness Sun altitude
Rises 01:34:52 0° 351° (N) 2,642 7.7 -12.5°
Reaches altitude 10° 01:37:01 10° 359° (N) 1,721 6.8 -12.3°
Maximum altitude 01:40:26 43° 72° (ENE) 745 4.4 -12.1°
Drops below altitude 10° 01:44:16 10° 146° (SE) 1,933 5.9 -11.7°
Sets 01:46:48 0° 153° (SSE) 3,020 6.8 -11.5°
